Overview Statistics Trail Chart Weather Telemetry Raw packets
 

This is the latest recevied weather packets stored in our database for station/object HI3FAM-13. If no packets are shown the sender has not sent any weather packets the latest 10 day(s).

<< 32 33 34 35 36 37 38 >>
Time Temp. Humidity Pressure Rain* Wind** Luminosity Snow
1788111700 33.89° C 63% 1014 hPa 0 mm - - -
1788111099 33.33° C 62% 1014 hPa 0 mm - - -
1788110498 33.33° C 62% 1015 hPa 0 mm - - -
1788109896 33.89° C 62% 1015 hPa 0 mm - - -
1788109295 33.89° C 62% 1015 hPa 0 mm - - -
1788108694 33.89° C 62% 1015 hPa 0 mm - - -
1788108093 34.44° C 74% 1015 hPa 0 mm - - -
1788107492 32.78° C 74% 1016 hPa 0 mm - - -
1788106891 32.78° C 74% 1016 hPa 0 mm - - -
1788106290 32.78° C 74% 1015 hPa 0 mm - - -
1788105689 32.78° C 74% 1015 hPa 0 mm - - -
1788105088 32.78° C 74% 1015 hPa 0 mm - - -
1788104487 32.78° C 74% 1015 hPa 0.25 mm - - -
1788103886 32.78° C 74% 1016 hPa 0 mm - - -
1788103285 32.78° C 74% 1016 hPa 0 mm - - -
1788102684 32.78° C 74% 1016 hPa 0 mm - - -
1788102083 33.33° C 74% 1016 hPa 0 mm - - -
1788101482 33.89° C 74% 1016 hPa 0 mm - - -
1788100894 30.56° C 74% 1016 hPa 0 mm - - -
1788100280 28.89° C 74% 1016 hPa 0 mm - - -
1788099679 29.44° C 76% 1016 hPa 0 mm - - -
1788099078 30° C 80% 1016 hPa 0 mm - - -
1788098477 30.56° C 83% 1016 hPa 0 mm - - -
1788097876 31.11° C 83% 1016 hPa 0 mm - - -
1788097275 31.11° C 83% 1016 hPa 0 mm - - -

* Rain latest hour (hover to see other rain measurements)
** Current wind speed in m/s (hover to see current wind gust speed)